www.pogodaiklimat.ru
ПОГОДА в Аммане
Время
(UTC), дата
18 18.01
21 18.01
00 19.01
03 19.01
06 19.01
09 19.01
12 19.01
15 19.01
18 19.01
21 19.01
00 20.01
03 20.01
06 20.01
09 20.01
12 20.01
15 20.01
18 20.01
21 20.01
00 21.01
03 21.01
06 21.01
09 21.01
12 21.01
15 21.01
18 21.01
21 21.01
00 22.01
03 22.01
06 22.01
09 22.01
12 22.01
15 22.01
18 22.01
21 22.01
00 23.01
03 23.01
06 23.01
09 23.01
12 23.01
15 23.01
18 23.01
21 23.01
00 24.01
03 24.01
06 24.01
09 24.01
12 24.01
15 24.01
18 24.01
21 24.01
00 25.01
03 25.01
06 25.01
Ветер
(напр.,м/с)
Видим. Явления Облачность Т
(С)
Тd
(С)
f
(%)
Тe
(С)
Тes
(С)
Комфортность P
(гПа)
Po
(гПа)
Тmin
(С)
Tmax
(С)
R
(мм)
R24
(мм)
S
(см)
З 4 2500 м дождь {морось} 10/10 450 м
[Cu Sc]
+8.5 +7.5 93 +5 +5 по сезону 1016.8 926.1 +10.2 2
З 3 2000 м слаб. дождь 10/10 450 м
[Cu Sc]
+8.4 +7.2 92 +6 +6 по сезону 1016.3 925.8
З 3 2000 м слаб. дождь 10/10 450 м
[Cu Sc]
+8.0 +6.8 92 +5 +5 тепло 1016.3 925.7 1
З 7 3000 м слаб. дождь 10/10 450 м
[Cu Sc]
+8.2 +6.8 91 +4 +4 по сезону 1015.8 925.3
ЮЗ 5 4000 м слаб. дождь 9/9 600 м
[Cu Sc]
+8.0 +5.0 81 +4 +4 по сезону 1018.1 927.2 +7.8 2
ЮЗ 5 4000 м слаб. дождь 9/9 540 м
[Cu Sc]
+8.9 +5.7 80 +5 +6 по сезону 1018.5 927.7
З 8 5000 м пыльный позёмок 6/6 750 м
[Cu Sc]
+10.2 +6.3 77 +6 +7 по сезону 1017.2 926.6 0.1
ЮЗ 5 5000 м слаб. морось {дождь} 9/9 600 м
[Frnb]
+9.4 +5.1 74 +6 +6 по сезону 1019.1 928.3
З 5 5000 м дымка {дождь} 9/8 750 м
[Cu Sc As op]
+7.8 +6.5 91 +4 +4 по сезону 1022.0 930.6 +11.5 0.6
ЮЗ 3 3000 м дождь {морось} 10/10 300 м
[Cu Sc]
+7.9 +6.4 90 +5 +5 по сезону 1021.8 930.5
ЮЗ 3 2500 м дождь {морось} 10/10 300 м
[Cu Sc]
+7.6 +7.0 96 +5 +5 по сезону 1021.6 930.6 5
ЮЗ 4 2000 м морось {дождь} 10/10 300 м
[St]
+7.9 +6.7 92 +5 +5 по сезону 1021.8 930.7
ЮЗ 4 3000 м морось 10/10 300 м
[St]
+7.8 +6.5 91 +5 +5 по сезону 1022.8 931.3 +7.7 6
З 5 1000 м дождь 10/10 300 м
[St]
+7.8 +6.1 89 +4 +4 по сезону 1023.6 932.1
З 6 2500 м слаб. дождь {морось} 10/10 450 м
[Frnb]
+7.7 +6.9 95 +3 +3 холодно 1022.6 931.1 4
З 3 3000 м слаб. дождь {морось} 9/8 360 м
[Cu med, cong Ac und]
+7.8 +6.5 91 +5 +5 прохладно 1022.2 930.8
З 3 4000 м слаб. морось {дождь} 9/8 360 м
[Cu Sc]
+7.6 +5.9 89 +5 +5 по сезону 1022.2 930.8 +8.4 5
ЮЗ 3 5000 м слаб. морось {дождь} 8/8 900 м
[Cu Sc]
+7.4 +5.2 86 +5 +5 по сезону 1021.8 930.4
СЗ 2 6000 м слаб. морось {дождь} 8/8 900 м
[Cu Sc]
+6.2 +3.9 85 +4 +4 по сезону 1020.2 928.7 0.6
З 4 6000 м мгла {дождь} 9/9 1200 м
[Cu Sc]
+5.8 +1.5 74 +2 +2 по сезону 1019.2 927.7
З 3 4000 м слаб. дождь 9/9 750 м
[Cu Sc]
+3.3 +2.1 92 -1 -1 прохладно 1019.3 927.4 +5.6 3
З 5 5000 м мгла 8/8 750 м
[Cu Sc]
+6.2 +0.9 69 +2 +3 прохладно 1018.5 927.1
СЗ 5 4000 м мгла 9/9 540 м
[Cu Sc]
+5.8 +1.5 74 +2 +2 очень
холодно
1018.2 926.6 0.0
З 4 3000 м слаб. морось {дождь} 9/9 540 м
[Cu Sc]
+4.4 +2.5 87 0 0 очень
холодно
1018.6 926.7
З 6 5000 м дымка 8/4 750 м
[Sc Ac und]
+4.6 +2.7 87 -1 -1 холодно 1019.8 927.4 +7.1 0.1
СЗ 4 6000 м дымка 9/9 450 м
[St]
+4.9 +3.5 91 +1 +1 прохладно 1020.1 928.2
СЗ 2 6000 м дымка 4/4 600 м
[Sc]
+4.2 +2.5 89 +1 +1 прохладно 1019.5 927.5
ЮЗ 3 5000 м дымка 9/5 750 м
[St]
+3.6 +2.4 92 0 0 прохладно 1020.1 927.7
З 3 5000 м мгла 5/5 450 м
[Sc]
+4.7 +2.3 84 +2 +2 по сезону 1021.5 929.2 +3.5
СЗ 3 6000 м мгла 6/6 750 м
[Cu med, cong]
+7.8 +3.3 73 +6 +9 по сезону 1021.7 929.9
СЗ 6 5000 м мгла 6/6 750 м
[Cu Sc]
+8.4 +2.4 66 +5 +5 холодно 1020.6 928.9
З 5 4000 м мгла {дождь} 8/6 750 м
[Cu Sc Ac trans]
+6.6 +2.9 77 +3 +3 холодно 1021.6 929.4
З 6 5000 м мгла {дождь} 3/3 900 м
[Cu hum Ac trans]
+5.8 +2.0 77 +1 +1 холодно 1023.0 930.7 +9.7 0.3
З 4 5000 м дымка 1/1 900 м
[Sc diur, vesp]
+4.8 +2.9 87 +1 +1 прохладно 1022.8 930.9
З 3 5000 м мгла 3/3 900 м
[Sc diur, vesp]
+4.6 +2.2 84 +1 +1 прохладно 1022.4 930.6 0.0
ЮЗ 4 5000 м дымка 4/4 900 м
[Sc diur, vesp]
+4.4 +3.0 91 0 0 прохладно 1021.8 929.7
З 4 4000 м дымка 9/9 600 м
[Frnb]
+5.4 +4.0 91 +1 +1 по сезону 1022.7 930.6 +4.0
З 5 4000 м дымка 9/9 540 м
[Frnb]
+7.0 +4.3 83 +3 +4 прохладно 1022.8 930.8
З 6 4000 м дымка 9/9 540 м
[Frnb]
+8.6 +4.2 74 +5 +5 холодно 1021.1 929.4 0.0
ЮЗ 6 4000 м мгла 9/9 360 м
[Cu med, cong]
+8.0 +5.0 81 +4 +4 прохладно 1021.0 929.2
З 6 3000 м морось {дождь} 8/8 360 м
[Frnb]
+7.0 +5.3 89 +2 +2 прохладно 1020.7 928.9 +9.6 0.1
ЮЗ 4 4000 м мгла 8/8 360 м
[Frnb]
+7.2 +2.6 73 +4 +4 по сезону 1018.8 927.5
З 9 1800 м слаб. дождь {морось} 10/6 360 м
[Frnb Ac cast]
+7.0 +5.0 87 +2 +2 по сезону 1015.0 924.2 0.7
З 9 1200 м сильн. дождь 10/6 600 м
[Frnb Ac und]
+6.6 +5.3 91 +1 +1 по сезону 1012.9 922.2
З 9 1500 м сильн. дождь 10/6 240 м
[Frnb Ac und]
+5.4 +5.4 100 -1 -1 прохладно 1014.8 923.6 +4.6 0.1
СЗ 5 2000 м дождь 10/6 300 м
[Frnb Ac und]
+4.8 +3.4 91 -0 0 холодно 1016.1 924.7
СЗ 9 10 км 6/5 750 м
[Cu Sc Ac cuf]
+6.0 +2.2 77 0 +1 очень
холодно
1016.7 925.4 7
З 6 7000 м 5/4 600 м
[Cu Sc Ac cuf]
+5.8 +2.0 77 +1 +1 холодно 1019.7 928.0
СЗ 7 10 км 1/1 900 м
[Cu hum]
+4.0 -1.3 68 -1 -1 холодно 1023.9 931.4 +7.2 7
С 2 8000 м 1/0
[Ac trans]
+3.0 -2.5 67 0 0 прохладно 1025.3 932.4
З 4 8000 м 3/0
[Ac trans]
+2.6 -1.8 73 -2 -2 холодно 1025.4 932.6
З 2 8000 м мгла ясно +2.4 -2.6 70 -1 -1 прохладно 1026.2 933.3
ЮЗ 2 5000 м дым 1/0 2000 м
[Ac trans]
+3.0 -2.6 67 +1 +3 по сезону 1029.0 935.6 +1.4
Местоположение метеостанции Амман (Иордания): широта 31.98 долгота 35.98 высота над уровнем моря 779 м.
В архиве по умолчанию представлена погода в Аммане за последнюю неделю. Архивные данные за месяц целиком и за предыдущие месяцы, начиная с января 2011 года, Вы можете получить, выбрав интересующий диапазон дат из раскрывающегося списка и нажав кнопку "Найти!".
*Определитесь, кто Вы:
Внимание! Время в таблицах - всемирное. Для получения местного времени необходимо прибавить поправку, которая равна 2 ч.
Смотрите также архив погоды в соседних городах и на ближайших метеорологических станциях:
Партнеры нашего сайта:      
Пояснения к столбцам:
  • Ветер - указаны скорость ветра в м/с - средняя за 10 мин, порывы в срок и между сроками (в фигурных скобках) и направление, откуда дует ветер: С - северный,
  • СВ - северо-восточный, В - восточный, ЮВ - юго-восточный, Ю - южный, ЮЗ - юго-западный, З - западный, СЗ - северо-западный.
  • Видимость - горизонтальная дальность видимости в метрах или километрах. При видимости от 1 до 10 км при отсутствии осадков обычно наблюдается дымка, при ухудшении видимости до 1 км и менее - туман. В сухую погоду видимость может ухудшаться дымом, пылью или мглою.
  • Явления - указаны атмосферные явления, наблюдавшиеся в срок или в последний час перед сроком; фигурными скобками обозначены явления, наблюдавшиеся между сроками (за 1-3 часа до срока); квадратными скобками обозначены град или гололедные отложения с указанием их диаметра в мм.
  • Облачность - указаны через наклонную черту общая и нижняя облачность в баллах и высота нижней границы облаков в метрах; квадратными скобками обозначены формы облаков: Ci - перистые, Cs - перисто-слоистые, Cc - перисто-кучевые, Ac - высококучевые, As - высокослоистые, Sc - слоисто-кучевые, Ns - слоисто-дождевые, Cu - кучевые, Cb - кучево-дождевые. Подробнее классификацию облаков см. в Атласе облаков (PDF).
  • T - Температура воздуха - температура, измеренная на высоте 2 м над землей.
  • Td - Температура точки росы - температура, при понижении до которой содержащийся в воздухе водяной пар достигнет насыщения.
  • f - Относительная влажность воздуха - влажноcть воздуха, измеренная на высоте 2 м над землей.
  • Te - Эффективная температура - температура, которую ощущает одетый по сезону человек в тени. Характеристика душности погоды. При расчете учитывается влияние влажности воздуха и скорости ветра на теплоощущения человека.
  • Tes - Эффективная температура на солнце - температура, которую ощущает человек, с поправкой на солнечный нагрев. Характеристика знойности погоды. Зависит от высоты солнца над горизонтом, облачности и скорости ветра. Ночью, в пасмурную погоду, а также при ветре 12 м/с и более поправка равна нулю.
  • P - Атмосферное давление - приведенное к уровню моря атмосферное давление.
  • Po - Атмосферное давление - измеренное на уровне метеостанции атмосферное давление.
  • Tmin - Минимальная температура - минимум температуры воздуха на высоте 2 м над землей.
  • Tmax - Максимальная температура - максимум температуры воздуха на высоте 2 м над землей.
  • R - Количество осадков - Количество выпавших осадков за период времени, мм. При наведении курсора мыши на число - период времени, за который выпало указанное количество осадков.
  • R24 - Количество осадков - Количество выпавших осадков за 24 часа, мм.
  • S - Снежный покров - Высота снежного покрова, см. При наведении курсора мыши на число - состояние снежного покрова и степень покрытия местности в баллах.